Time,TemperatureF,DewpointF,PressureIn,WindDirection,WindDirectionDegrees,WindSpeedMPH,WindSpeedGustMPH,Humidity,HourlyPrecipIn,Conditions,Clouds,dailyrainin,SolarRadiationWatts/m^2,SoftwareType,DateUTC
2013-09-01 00:02:00,58.0,34.0,-100.00,NNE,27,2.0,9.0,41,0.00,,,0.00,0.000000,,2013-09-01 06:02:00,
2013-09-01 00:12:00,58.0,34.0,-100.00,NNE,27,2.0,9.0,41,0.00,,,0.00,0.000000,,2013-09-01 06:12:00,
2013-09-01 00:42:00,55.0,35.0,-100.00,ESE,107,3.0,6.0,47,0.00,,,0.00,0.000000,,2013-09-01 06:42:00,
2013-09-01 00:52:00,55.0,35.0,-100.00,ESE,107,3.0,6.0,47,0.00,,,0.00,0.000000,,2013-09-01 06:52:00,
2013-09-01 01:02:00,55.0,35.0,-100.00,ESE,107,3.0,6.0,47,0.00,,,0.00,0.000000,,2013-09-01 07:02:00,
2013-09-01 01:12:00,55.0,35.0,-100.00,ESE,107,3.0,6.0,47,0.00,,,0.00,0.000000,,2013-09-01 07:12:00,
2013-09-01 02:11:00,50.0,35.0,-100.00,North,7,2.0,3.0,56,0.00,,,0.00,0.000000,,2013-09-01 08:11:00,
2013-09-01 02:43:00,51.0,36.0,-100.00,NNE,29,1.0,6.0,56,0.00,,,0.00,0.000000,,2013-09-01 08:43:00,
2013-09-01 02:52:00,51.0,36.0,-100.00,NNE,29,1.0,6.0,56,0.00,,,0.00,0.000000,,2013-09-01 08:52:00,
2013-09-01 03:02:00,51.0,36.0,-100.00,NNE,29,1.0,6.0,56,0.00,,,0.00,0.000000,,2013-09-01 09:02:00,
2013-09-01 03:11:00,51.0,36.0,-100.00,NNE,29,1.0,6.0,56,0.00,,,0.00,0.000000,,2013-09-01 09:11:00,
2013-09-01 03:43:00,49.0,36.0,-100.00,SE,126,3.0,5.0,60,0.00,,,0.00,0.000000,,2013-09-01 09:43:00,
2013-09-01 03:53:00,49.0,36.0,-100.00,SE,126,3.0,5.0,60,0.00,,,0.00,0.000000,,2013-09-01 09:53:00,
2013-09-01 04:03:00,49.0,36.0,-100.00,SE,126,3.0,5.0,60,0.00,,,0.00,0.000000,,2013-09-01 10:03:00,
2013-09-01 04:12:00,49.0,36.0,-100.00,SE,126,3.0,5.0,60,0.00,,,0.00,0.000000,,2013-09-01 10:12:00,
2013-09-01 04:42:00,47.0,36.0,-100.00,ENE,77,3.0,6.0,66,0.00,,,0.00,0.000000,,2013-09-01 10:42:00,
2013-09-01 04:53:00,47.0,36.0,-100.00,ENE,77,3.0,6.0,66,0.00,,,0.00,0.000000,,2013-09-01 10:53:00,
2013-09-01 05:02:00,47.0,36.0,-100.00,ENE,77,3.0,6.0,66,0.00,,,0.00,0.000000,,2013-09-01 11:02:00,
2013-09-01 05:12:00,47.0,36.0,-100.00,ENE,77,3.0,6.0,66,0.00,,,0.00,0.000000,,2013-09-01 11:12:00,
2013-09-01 06:12:00,44.0,35.0,-100.00,NE,49,0.0,3.0,71,0.00,,,0.00,0.000000,,2013-09-01 12:12:00,
2013-09-01 07:11:00,43.0,36.0,-100.00,East,83,2.0,4.0,75,0.00,,,0.00,0.000000,,2013-09-01 13:11:00,
2013-09-01 08:42:00,47.0,40.0,-100.00,East,99,2.0,4.0,77,-99.99,,,0.00,50.000000,,2013-09-01 14:42:00,
2013-09-01 08:52:00,47.0,40.0,-100.00,East,99,2.0,4.0,77,-99.99,,,0.00,50.000000,,2013-09-01 14:52:00,
2013-09-01 09:02:00,47.0,40.0,-100.00,East,99,2.0,4.0,77,-99.99,,,0.00,50.000000,,2013-09-01 15:02:00,
2013-09-01 09:11:00,47.0,40.0,-100.00,East,99,2.0,4.0,77,-99.99,,,0.00,50.000000,,2013-09-01 15:11:00,
2013-09-01 09:45:00,56.0,43.0,-100.00,NNW,340,1.0,3.0,61,0.00,,,0.00,330.000000,,2013-09-01 15:45:00,
2013-09-01 09:55:00,56.0,43.0,-100.00,NNW,340,1.0,3.0,61,0.00,,,0.00,330.000000,,2013-09-01 15:55:00,
2013-09-01 10:05:00,56.0,43.0,-100.00,NNW,340,1.0,3.0,61,0.00,,,0.00,330.000000,,2013-09-01 16:05:00,
2013-09-01 10:14:00,56.0,43.0,-100.00,NNW,340,1.0,3.0,61,0.00,,,0.00,330.000000,,2013-09-01 16:14:00,
2013-09-01 10:43:00,63.0,42.0,-100.00,WNW,290,2.0,5.0,46,0.00,,,-99.99,537.000000,,2013-09-01 16:43:00,
2013-09-01 10:53:00,63.0,42.0,-100.00,WNW,290,2.0,5.0,46,0.00,,,-99.99,537.000000,,2013-09-01 16:53:00,
2013-09-01 11:03:00,63.0,42.0,-100.00,WNW,290,2.0,5.0,46,0.00,,,-99.99,537.000000,,2013-09-01 17:03:00,
2013-09-01 11:12:00,63.0,42.0,-100.00,WNW,290,2.0,5.0,46,0.00,,,-99.99,537.000000,,2013-09-01 17:12:00,
2013-09-01 11:42:00,71.0,43.0,-100.00,West,279,4.0,6.0,36,0.00,,,0.00,706.000000,,2013-09-01 17:42:00,
2013-09-01 11:52:00,71.0,43.0,-100.00,West,279,4.0,6.0,36,0.00,,,0.00,706.000000,,2013-09-01 17:52:00,
2013-09-01 12:02:00,71.0,43.0,-100.00,West,279,4.0,6.0,36,0.00,,,0.00,706.000000,,2013-09-01 18:02:00,
2013-09-01 12:12:00,71.0,43.0,-100.00,West,279,4.0,6.0,36,0.00,,,0.00,706.000000,,2013-09-01 18:12:00,
2013-09-01 12:42:00,79.0,43.0,-100.00,North,3,3.0,6.0,28,0.00,,,0.00,795.000000,,2013-09-01 18:42:00,
2013-09-01 12:52:00,79.0,43.0,-100.00,North,3,3.0,6.0,28,0.00,,,0.00,795.000000,,2013-09-01 18:52:00,
2013-09-01 13:02:00,79.0,43.0,-100.00,North,3,3.0,6.0,28,0.00,,,0.00,795.000000,,2013-09-01 19:02:00,
2013-09-01 13:12:00,79.0,43.0,-100.00,North,3,3.0,6.0,28,0.00,,,0.00,795.000000,,2013-09-01 19:12:00,
2013-09-01 13:42:00,85.0,35.0,-100.00,East,88,3.0,7.0,17,0.00,,,0.00,893.000000,,2013-09-01 19:42:00,
2013-09-01 13:52:00,85.0,35.0,-100.00,East,88,3.0,7.0,17,0.00,,,0.00,893.000000,,2013-09-01 19:52:00,
2013-09-01 14:02:00,85.0,35.0,-100.00,East,88,3.0,7.0,17,0.00,,,0.00,893.000000,,2013-09-01 20:02:00,
2013-09-01 14:12:00,85.0,35.0,-100.00,East,88,3.0,7.0,17,0.00,,,0.00,893.000000,,2013-09-01 20:12:00,
2013-09-01 14:42:00,89.0,30.0,-100.00,NE,48,4.0,10.0,12,0.00,,,0.00,887.000000,,2013-09-01 20:42:00,
2013-09-01 14:52:00,89.0,30.0,-100.00,NE,48,4.0,10.0,12,0.00,,,0.00,887.000000,,2013-09-01 20:52:00,
2013-09-01 15:02:00,89.0,30.0,-100.00,NE,48,4.0,10.0,12,0.00,,,0.00,887.000000,,2013-09-01 21:02:00,
2013-09-01 15:11:00,89.0,30.0,-100.00,NE,48,4.0,10.0,12,0.00,,,0.00,887.000000,,2013-09-01 21:11:00,
2013-09-01 15:44:00,90.0,31.0,-100.00,SSE,149,6.0,11.0,12,0.00,,,-99.99,834.000000,,2013-09-01 21:44:00,
2013-09-01 15:55:00,90.0,31.0,-100.00,SSE,149,6.0,11.0,12,0.00,,,-99.99,834.000000,,2013-09-01 21:55:00,
2013-09-01 16:04:00,90.0,31.0,-100.00,SSE,149,6.0,11.0,12,0.00,,,-99.99,834.000000,,2013-09-01 22:04:00,
2013-09-01 16:14:00,90.0,31.0,-100.00,SSE,149,6.0,11.0,12,0.00,,,-99.99,834.000000,,2013-09-01 22:14:00,
2013-09-01 16:43:00,91.0,24.0,-100.00,WNW,285,5.0,15.0,9,0.00,,,0.00,604.000000,,2013-09-01 22:43:00,
2013-09-01 16:53:00,91.0,24.0,-100.00,WNW,285,5.0,15.0,9,0.00,,,0.00,604.000000,,2013-09-01 22:53:00,
2013-09-01 17:03:00,91.0,24.0,-100.00,WNW,285,5.0,15.0,9,0.00,,,0.00,604.000000,,2013-09-01 23:03:00,
2013-09-01 17:12:00,91.0,24.0,-100.00,WNW,285,5.0,15.0,9,0.00,,,0.00,604.000000,,2013-09-01 23:12:00,
2013-09-01 17:42:00,91.0,24.0,-100.00,WNW,287,4.0,15.0,9,0.00,,,0.00,597.000000,,2013-09-01 23:42:00,
2013-09-01 17:53:00,91.0,24.0,-100.00,WNW,287,4.0,15.0,9,0.00,,,0.00,597.000000,,2013-09-01 23:53:00,
2013-09-01 18:02:00,91.0,24.0,-100.00,WNW,287,4.0,15.0,9,0.00,,,0.00,597.000000,,2013-09-02 00:02:00,
2013-09-01 18:11:00,91.0,24.0,-100.00,WNW,287,4.0,15.0,9,0.00,,,0.00,597.000000,,2013-09-02 00:11:00,
2013-09-01 18:42:00,88.0,35.0,-100.00,West,267,4.0,11.0,15,0.00,,,0.00,365.000000,,2013-09-02 00:42:00,
2013-09-01 18:52:00,88.0,35.0,-100.00,West,267,4.0,11.0,15,0.00,,,0.00,365.000000,,2013-09-02 00:52:00,
2013-09-01 19:02:00,88.0,35.0,-100.00,West,267,4.0,11.0,15,0.00,,,0.00,365.000000,,2013-09-02 01:02:00,
2013-09-01 19:12:00,88.0,35.0,-100.00,West,267,4.0,11.0,15,0.00,,,0.00,365.000000,,2013-09-02 01:12:00,
2013-09-01 19:42:00,85.0,34.0,-100.00,North,7,3.0,7.0,16,0.00,,,0.00,148.000000,,2013-09-02 01:42:00,
2013-09-01 19:52:00,85.0,34.0,-100.00,North,7,3.0,7.0,16,0.00,,,0.00,148.000000,,2013-09-02 01:52:00,
2013-09-01 20:02:00,85.0,34.0,-100.00,North,7,3.0,7.0,16,0.00,,,0.00,148.000000,,2013-09-02 02:02:00,
2013-09-01 20:12:00,85.0,34.0,-100.00,North,7,3.0,7.0,16,0.00,,,0.00,148.000000,,2013-09-02 02:12:00,
2013-09-01 20:42:00,73.0,36.0,-100.00,SE,128,4.0,6.0,26,0.00,,,0.00,24.000000,,2013-09-02 02:42:00,
2013-09-01 20:52:00,73.0,36.0,-100.00,SE,128,4.0,6.0,26,0.00,,,0.00,24.000000,,2013-09-02 02:52:00,
2013-09-01 21:02:00,73.0,36.0,-100.00,SE,128,4.0,6.0,26,0.00,,,0.00,24.000000,,2013-09-02 03:02:00,
2013-09-01 21:11:00,73.0,36.0,-100.00,SE,128,4.0,6.0,26,0.00,,,0.00,24.000000,,2013-09-02 03:11:00,
2013-09-01 21:44:00,70.0,33.0,-100.00,SE,130,4.0,8.0,25,0.00,,,0.00,0.000000,,2013-09-02 03:44:00,
2013-09-01 21:56:00,70.0,33.0,-100.00,SE,130,4.0,8.0,25,0.00,,,0.00,0.000000,,2013-09-02 03:56:00,
2013-09-01 22:04:00,70.0,33.0,-100.00,SE,130,4.0,8.0,25,0.00,,,0.00,0.000000,,2013-09-02 04:04:00,
2013-09-01 22:14:00,70.0,33.0,-100.00,SE,130,4.0,8.0,25,0.00,,,0.00,0.000000,,2013-09-02 04:14:00,
2013-09-01 22:44:00,67.0,31.0,-100.00,ESE,109,7.0,9.0,26,0.00,,,0.00,0.000000,,2013-09-02 04:44:00,
2013-09-01 22:54:00,67.0,31.0,-100.00,ESE,109,7.0,9.0,26,0.00,,,0.00,0.000000,,2013-09-02 04:54:00,
2013-09-01 23:03:00,67.0,31.0,-100.00,ESE,109,7.0,9.0,26,0.00,,,0.00,0.000000,,2013-09-02 05:03:00,
2013-09-01 23:12:00,67.0,31.0,-100.00,ESE,109,7.0,9.0,26,0.00,,,0.00,0.000000,,2013-09-02 05:12:00,
2013-09-01 23:44:00,65.0,32.0,-100.00,NE,52,2.0,10.0,29,-99.99,,,0.00,0.000000,,2013-09-02 05:44:00,
2013-09-01 23:52:00,65.0,32.0,-100.00,NE,52,2.0,10.0,29,-99.99,,,0.00,0.000000,,2013-09-02 05:52:00,